You are not logged in, Click here to log in
仰光國際機場RGN / VYYY 緬甸仰光
ICAO: VYYY Country: 緬甸仰光
Latitude: 16.9073 Longitude: 96.1332
Total Arrivals: 9 Total Departures: 14
Latest Arrival: FS69 (VDPP-VYYY)CHU. CHUHAO Latest Departure: MU2032 (VYYY-ZPPP)CHU. CHUHAO
Scenery:
METAR : VYYY 121900Z 14002KT 6000 BKN014 FEW020CB BKN100 25/24 Q1005 NOSIG

仰光國際機場RGN

You are accessing this site from IP address 35.168.112.145. Virtual Airline. CMS by phpVMS.Website designed by Zumeweb and edited by Theo Bearman.
There is 0 User(s) Online: | and 18 Guest(s) Online.
All information on this site is for fight simulation purposes only. This site is for flight logging for pilots of Virtual Airline&模擬飛行論壇 FlySim only.